This is the latest recevied weather packets stored in our database for station/object K4CRS-13. If no packets are shown the sender has not sent any weather packets the latest 10 day(s).
| Time | Temp. | Humidity | Pressure | Rain* | Wind** | Luminosity | Snow |
|---|---|---|---|---|---|---|---|
| 1777655720 | 16.11° C | 61% | 1051 hPa | 0 mm | - | 300 W/m² | - |
| 1777655417 | 16.67° C | 60% | 1051.1 hPa | 0 mm | - | 348 W/m² | - |
| 1777655114 | 16.11° C | 63% | 1051.1 hPa | 0 mm | - | 333 W/m² | - |
| 1777654811 | 16.11° C | 62% | 1051.1 hPa | 0 mm | - | 317 W/m² | - |
| 1777654509 | 16.11° C | 64% | 1051 hPa | 0 mm | - | 335 W/m² | - |
| 1777654206 | 16.11° C | 63% | 1051.2 hPa | 0 mm | - | 352 W/m² | - |
| 1777653904 | 16.11° C | 66% | 1051.5 hPa | 0 mm | - | 335 W/m² | - |
| 1777653600 | 16.11° C | 62% | 1051.4 hPa | 0 mm | - | 345 W/m² | - |
| 1777653296 | 15.56° C | 63% | 1051.5 hPa | 0 mm | - | 364 W/m² | - |
| 1777652993 | 15.56° C | 64% | 1051.8 hPa | 0 mm | - | 405 W/m² | - |
| 1777652689 | 15.56° C | 62% | 1051.7 hPa | 0 mm | - | 367 W/m² | - |
| 1777652387 | 15° C | 64% | 1051.5 hPa | 0 mm | - | 335 W/m² | - |
| 1777652083 | 15° C | 64% | 1051.5 hPa | 0 mm | - | 276 W/m² | - |
| 1777651780 | 15° C | 65% | 1051.6 hPa | 0 mm | - | 268 W/m² | - |
| 1777651477 | 15° C | 66% | 1051.5 hPa | 0 mm | - | 250 W/m² | - |
| 1777651174 | 15° C | 68% | 1051.3 hPa | 0 mm | - | 256 W/m² | - |
| 1777650871 | 15° C | 69% | 1051.5 hPa | 0 mm | - | 256 W/m² | - |
| 1777650568 | 15° C | 71% | 1051.2 hPa | 0 mm | - | 262 W/m² | - |
| 1777650265 | 14.44° C | 69% | 1050.9 hPa | 0 mm | - | 265 W/m² | - |
| 1777649962 | 14.44° C | 72% | 1051 hPa | 0 mm | - | 271 W/m² | - |
| 1777649660 | 14.44° C | 73% | 1051.1 hPa | 0 mm | - | 267 W/m² | - |
| 1777649355 | 13.89° C | 74% | 1050.9 hPa | 0 mm | - | 269 W/m² | - |
| 1777649053 | 13.89° C | 75% | 1050.9 hPa | 0 mm | - | 275 W/m² | - |
| 1777648750 | 13.89° C | 76% | 1050.9 hPa | 0 mm | - | 283 W/m² | - |
| 1777648447 | 13.89° C | 77% | 1051 hPa | 0 mm | - | 217 W/m² | - |
* Rain latest hour (hover to see other rain measurements)
** Current wind speed in m/s (hover to see current wind gust speed)